Year,Month,Day,Hour,Minute,Value (Times are PST for insolation in W/m^2)
2007,02,28,00,00,0.00
2007,02,28,00,01,0.00
2007,02,28,00,02,0.00
2007,02,28,00,03,0.00
2007,02,28,00,04,0.00
2007,02,28,00,05,0.00
2007,02,28,00,06,0.00
2007,02,28,00,07,0.00
2007,02,28,00,08,0.00
2007,02,28,00,09,0.00
2007,02,28,00,10,0.00
2007,02,28,00,11,0.00
2007,02,28,00,12,0.00
2007,02,28,00,13,0.00
2007,02,28,00,14,0.00
2007,02,28,00,15,0.00
2007,02,28,00,16,0.00
2007,02,28,00,17,0.00
2007,02,28,00,18,0.00
2007,02,28,00,19,0.00
2007,02,28,00,20,0.00
2007,02,28,00,21,0.00
2007,02,28,00,22,0.00
2007,02,28,00,23,0.00
2007,02,28,00,24,0.00
2007,02,28,00,25,0.00
2007,02,28,00,26,0.00
2007,02,28,00,27,0.00
2007,02,28,00,28,0.00
2007,02,28,00,29,0.00
2007,02,28,00,30,0.00
2007,02,28,00,31,0.00
2007,02,28,00,32,0.00
2007,02,28,00,33,0.00
2007,02,28,00,34,0.00
2007,02,28,00,35,0.00
2007,02,28,00,36,0.00
2007,02,28,00,37,0.00
2007,02,28,00,38,0.00
2007,02,28,00,39,0.00
2007,02,28,00,40,0.00
2007,02,28,00,41,0.00
2007,02,28,00,42,0.00
2007,02,28,00,43,0.00
2007,02,28,00,44,0.00
2007,02,28,00,45,0.00
2007,02,28,00,46,0.00
2007,02,28,00,47,0.00
2007,02,28,00,48,0.00
2007,02,28,00,49,0.00
2007,02,28,00,50,0.00
2007,02,28,00,51,0.00
2007,02,28,00,52,0.00
2007,02,28,00,53,0.00
2007,02,28,00,54,0.00
2007,02,28,00,55,0.00
2007,02,28,00,56,0.00
2007,02,28,00,57,0.00
2007,02,28,00,58,0.00
2007,02,28,00,59,0.00
2007,02,28,01,00,0.00
2007,02,28,01,01,0.00
2007,02,28,01,02,0.00
2007,02,28,01,03,0.00
2007,02,28,01,04,0.00
2007,02,28,01,05,0.00
2007,02,28,01,06,0.00
2007,02,28,01,07,0.00
2007,02,28,01,08,0.00
2007,02,28,01,09,0.00
2007,02,28,01,10,0.00
2007,02,28,01,11,0.00
2007,02,28,01,12,0.00
2007,02,28,01,13,0.00
2007,02,28,01,14,0.00
2007,02,28,01,15,0.00
2007,02,28,01,16,0.00
2007,02,28,01,17,0.00
2007,02,28,01,18,0.00
2007,02,28,01,19,0.00
2007,02,28,01,20,0.00
2007,02,28,01,21,0.00
2007,02,28,01,22,0.00
2007,02,28,01,23,0.00
2007,02,28,01,24,0.00
2007,02,28,01,25,0.00
2007,02,28,01,26,0.00
2007,02,28,01,27,0.00
2007,02,28,01,28,0.00
2007,02,28,01,29,0.00
2007,02,28,01,30,0.00
2007,02,28,01,31,0.00
2007,02,28,01,32,0.00
2007,02,28,01,33,0.00
2007,02,28,01,34,0.00
2007,02,28,01,35,0.00
2007,02,28,01,36,0.00
2007,02,28,01,37,0.00
2007,02,28,01,38,0.00
2007,02,28,01,39,0.00
2007,02,28,01,40,0.00
2007,02,28,01,41,0.00
2007,02,28,01,42,0.00
2007,02,28,01,43,0.00
2007,02,28,01,44,0.00
2007,02,28,01,45,0.00
2007,02,28,01,46,0.00
2007,02,28,01,47,0.00
2007,02,28,01,48,0.00
2007,02,28,01,49,0.00
2007,02,28,01,50,0.00
2007,02,28,01,51,0.00
2007,02,28,01,52,0.00
2007,02,28,01,53,0.00
2007,02,28,01,54,0.00
2007,02,28,01,55,0.00
2007,02,28,01,56,0.00
2007,02,28,01,57,0.00
2007,02,28,01,58,0.00
2007,02,28,01,59,0.00
2007,02,28,02,00,0.00
2007,02,28,02,01,0.00
2007,02,28,02,02,0.00
2007,02,28,02,03,0.00
2007,02,28,02,04,0.00
2007,02,28,02,05,0.00
2007,02,28,02,06,0.00
2007,02,28,02,07,0.00
2007,02,28,02,08,0.00
2007,02,28,02,09,0.00
2007,02,28,02,10,0.00
2007,02,28,02,11,0.00
2007,02,28,02,12,0.00
2007,02,28,02,13,0.00
2007,02,28,02,14,0.00
2007,02,28,02,15,0.00
2007,02,28,02,16,0.00
2007,02,28,02,17,0.00
2007,02,28,02,18,0.00
2007,02,28,02,19,0.00
2007,02,28,02,20,0.00
2007,02,28,02,21,0.00
2007,02,28,02,22,0.00
2007,02,28,02,23,0.00
2007,02,28,02,24,0.00
2007,02,28,02,25,0.00
2007,02,28,02,26,0.00
2007,02,28,02,27,0.00
2007,02,28,02,28,0.00
2007,02,28,02,29,0.00
2007,02,28,02,30,0.00
2007,02,28,02,31,0.00
2007,02,28,02,32,0.00
2007,02,28,02,33,0.00
2007,02,28,02,34,0.00
2007,02,28,02,35,0.00
2007,02,28,02,36,0.00
2007,02,28,02,37,0.00
2007,02,28,02,38,0.00
2007,02,28,02,39,0.00
2007,02,28,02,40,0.00
2007,02,28,02,41,0.00
2007,02,28,02,42,0.00
2007,02,28,02,43,0.00
2007,02,28,02,44,0.00
2007,02,28,02,45,0.00
2007,02,28,02,46,0.00
2007,02,28,02,47,0.00
2007,02,28,02,48,0.00
2007,02,28,02,49,0.00
2007,02,28,02,50,0.00
2007,02,28,02,51,0.00
2007,02,28,02,52,0.00
2007,02,28,02,53,0.00
2007,02,28,02,54,0.00
2007,02,28,02,55,0.00
2007,02,28,02,56,0.00
2007,02,28,02,57,0.00
2007,02,28,02,58,0.00
2007,02,28,02,59,0.00
2007,02,28,03,00,0.00
2007,02,28,03,01,0.00
2007,02,28,03,02,0.00
2007,02,28,03,03,0.00
2007,02,28,03,04,0.00
2007,02,28,03,05,0.00
2007,02,28,03,06,0.00
2007,02,28,03,07,0.00
2007,02,28,03,08,0.00
2007,02,28,03,09,0.00
2007,02,28,03,10,0.00
2007,02,28,03,11,0.00
2007,02,28,03,12,0.00
2007,02,28,03,13,0.00
2007,02,28,03,14,0.00
2007,02,28,03,15,0.00
2007,02,28,03,16,0.00
2007,02,28,03,17,0.00
2007,02,28,03,18,0.00
2007,02,28,03,19,0.00
2007,02,28,03,20,0.00
2007,02,28,03,21,0.00
2007,02,28,03,22,0.00
2007,02,28,03,23,0.00
2007,02,28,03,24,0.00
2007,02,28,03,25,0.00
2007,02,28,03,26,0.00
2007,02,28,03,27,0.00
2007,02,28,03,28,0.00
2007,02,28,03,29,0.00
2007,02,28,03,30,0.00
2007,02,28,03,31,0.00
2007,02,28,03,32,0.00
2007,02,28,03,33,0.00
2007,02,28,03,34,0.00
2007,02,28,03,35,0.00
2007,02,28,03,36,0.00
2007,02,28,03,37,0.00
2007,02,28,03,38,0.00
2007,02,28,03,39,0.00
2007,02,28,03,40,0.00
2007,02,28,03,41,0.00
2007,02,28,03,42,0.00
2007,02,28,03,43,0.00
2007,02,28,03,44,0.00
2007,02,28,03,45,0.00
2007,02,28,03,46,0.00
2007,02,28,03,47,0.00
2007,02,28,03,48,0.00
2007,02,28,03,49,0.00
2007,02,28,03,50,0.00
2007,02,28,03,51,0.00
2007,02,28,03,52,0.00
2007,02,28,03,53,0.00
2007,02,28,03,54,0.00
2007,02,28,03,55,0.00
2007,02,28,03,56,0.00
2007,02,28,03,57,0.00
2007,02,28,03,58,0.00
2007,02,28,03,59,0.00
2007,02,28,04,00,0.00
2007,02,28,04,01,0.00
2007,02,28,04,02,0.00
2007,02,28,04,03,0.00
2007,02,28,04,04,0.00
2007,02,28,04,05,0.00
2007,02,28,04,06,0.00
2007,02,28,04,07,0.00
2007,02,28,04,08,0.00
2007,02,28,04,09,0.00
2007,02,28,04,10,0.00
2007,02,28,04,11,0.00
2007,02,28,04,12,0.00
2007,02,28,04,13,0.00
2007,02,28,04,14,0.00
2007,02,28,04,15,0.00
2007,02,28,04,16,0.00
2007,02,28,04,17,0.00
2007,02,28,04,18,0.00
2007,02,28,04,19,0.00
2007,02,28,04,20,0.00
2007,02,28,04,21,0.00
2007,02,28,04,22,0.00
2007,02,28,04,23,0.00
2007,02,28,04,24,0.00
2007,02,28,04,25,0.00
2007,02,28,04,26,0.00
2007,02,28,04,27,0.00
2007,02,28,04,28,0.00
2007,02,28,04,29,0.00
2007,02,28,04,30,0.00
2007,02,28,04,31,0.00
2007,02,28,04,32,0.00
2007,02,28,04,33,0.00
2007,02,28,04,34,0.00
2007,02,28,04,35,0.00
2007,02,28,04,36,0.00
2007,02,28,04,37,0.00
2007,02,28,04,38,0.00
2007,02,28,04,39,0.00
2007,02,28,04,40,0.00
2007,02,28,04,41,0.00
2007,02,28,04,42,0.00
2007,02,28,04,43,0.00
2007,02,28,04,44,0.00
2007,02,28,04,45,0.00
2007,02,28,04,46,0.00
2007,02,28,04,47,0.00
2007,02,28,04,48,0.00
2007,02,28,04,49,0.00
2007,02,28,04,50,0.00
2007,02,28,04,51,0.00
2007,02,28,04,52,0.00
2007,02,28,04,53,0.00
2007,02,28,04,54,0.00
2007,02,28,04,55,0.00
2007,02,28,04,56,0.00
2007,02,28,04,57,0.00
2007,02,28,04,58,0.00
2007,02,28,04,59,0.00
2007,02,28,05,00,0.00
2007,02,28,05,01,0.00
2007,02,28,05,02,0.00
2007,02,28,05,03,0.00
2007,02,28,05,04,0.00
2007,02,28,05,05,0.00
2007,02,28,05,06,0.00
2007,02,28,05,07,0.00
2007,02,28,05,08,0.00
2007,02,28,05,09,0.00
2007,02,28,05,10,0.00
2007,02,28,05,11,0.00
2007,02,28,05,12,0.00
2007,02,28,05,13,0.00
2007,02,28,05,14,0.00
2007,02,28,05,15,0.00
2007,02,28,05,16,0.00
2007,02,28,05,17,0.00
2007,02,28,05,18,0.00
2007,02,28,05,19,0.00
2007,02,28,05,20,0.00
2007,02,28,05,21,0.00
2007,02,28,05,22,0.00
2007,02,28,05,23,0.00
2007,02,28,05,24,0.00
2007,02,28,05,25,0.00
2007,02,28,05,26,0.00
2007,02,28,05,27,0.00
2007,02,28,05,28,0.00
2007,02,28,05,29,0.00
2007,02,28,05,30,0.00
2007,02,28,05,31,0.00
2007,02,28,05,32,0.00
2007,02,28,05,33,0.00
2007,02,28,05,34,0.00
2007,02,28,05,35,0.00
2007,02,28,05,36,0.00
2007,02,28,05,37,0.00
2007,02,28,05,38,0.00
2007,02,28,05,39,0.00
2007,02,28,05,40,0.00
2007,02,28,05,41,0.00
2007,02,28,05,42,0.00
2007,02,28,05,43,0.00
2007,02,28,05,44,0.00
2007,02,28,05,45,0.00
2007,02,28,05,46,0.00
2007,02,28,05,47,0.00
2007,02,28,05,48,0.00
2007,02,28,05,49,0.00
2007,02,28,05,50,0.00
2007,02,28,05,51,0.00
2007,02,28,05,52,0.00
2007,02,28,05,53,0.00
2007,02,28,05,54,0.00
2007,02,28,05,55,0.00
2007,02,28,05,56,0.00
2007,02,28,05,57,0.00
2007,02,28,05,58,0.00
2007,02,28,05,59,0.00
2007,02,28,06,00,0.00
2007,02,28,06,01,0.00
2007,02,28,06,02,0.00
2007,02,28,06,03,0.00
2007,02,28,06,04,0.00
2007,02,28,06,05,0.00
2007,02,28,06,06,0.00
2007,02,28,06,07,0.00
2007,02,28,06,08,0.00
2007,02,28,06,09,0.00
2007,02,28,06,10,0.00
2007,02,28,06,11,0.00
2007,02,28,06,12,0.00
2007,02,28,06,13,0.00
2007,02,28,06,14,0.00
2007,02,28,06,15,0.00
2007,02,28,06,16,0.00
2007,02,28,06,17,0.00
2007,02,28,06,18,0.00
2007,02,28,06,19,0.00
2007,02,28,06,20,0.00
2007,02,28,06,21,0.00
2007,02,28,06,22,0.00
2007,02,28,06,23,0.00
2007,02,28,06,24,0.00
2007,02,28,06,25,0.00
2007,02,28,06,26,0.00
2007,02,28,06,27,0.00
2007,02,28,06,28,0.00
2007,02,28,06,29,0.00
2007,02,28,06,30,0.00
2007,02,28,06,31,0.00
2007,02,28,06,32,0.00
2007,02,28,06,33,0.00
2007,02,28,06,34,0.00
2007,02,28,06,35,0.00
2007,02,28,06,36,0.00
2007,02,28,06,37,0.00
2007,02,28,06,38,0.00
2007,02,28,06,39,0.00
2007,02,28,06,40,0.00
2007,02,28,06,41,0.00
2007,02,28,06,42,0.00
2007,02,28,06,43,0.00
2007,02,28,06,44,0.00
2007,02,28,06,45,0.00
2007,02,28,06,46,0.00
2007,02,28,06,47,0.00
2007,02,28,06,48,0.00
2007,02,28,06,49,0.00
2007,02,28,06,50,0.00
2007,02,28,06,51,0.00
2007,02,28,06,52,0.00
2007,02,28,06,53,0.00
2007,02,28,06,54,0.00
2007,02,28,06,55,0.00
2007,02,28,06,56,0.00
2007,02,28,06,57,0.00
2007,02,28,06,58,0.00
2007,02,28,06,59,0.00
2007,02,28,07,00,0.00
2007,02,28,07,01,0.00
2007,02,28,07,02,0.00
2007,02,28,07,03,0.00
2007,02,28,07,04,0.00
2007,02,28,07,05,0.00
2007,02,28,07,06,0.00
2007,02,28,07,07,0.00
2007,02,28,07,08,0.00
2007,02,28,07,09,0.00
2007,02,28,07,10,0.00
2007,02,28,07,11,0.00
2007,02,28,07,12,0.00
2007,02,28,07,13,0.00
2007,02,28,07,14,0.00
2007,02,28,07,15,0.00
2007,02,28,07,16,0.00
2007,02,28,07,17,0.00
2007,02,28,07,18,0.00
2007,02,28,07,19,0.00
2007,02,28,07,20,0.00
2007,02,28,07,21,0.00
2007,02,28,07,22,0.00
2007,02,28,07,23,0.00
2007,02,28,07,24,0.00
2007,02,28,07,25,0.00
2007,02,28,07,26,0.00
2007,02,28,07,27,0.00
2007,02,28,07,28,0.00
2007,02,28,07,29,0.00
2007,02,28,07,30,0.00
2007,02,28,07,31,0.00
2007,02,28,07,32,0.00
2007,02,28,07,33,0.00
2007,02,28,07,34,1.80
2007,02,28,07,35,5.00
2007,02,28,07,36,5.00
2007,02,28,07,37,5.00
2007,02,28,07,38,5.00
2007,02,28,07,39,5.00
2007,02,28,07,40,5.00
2007,02,28,07,41,5.30
2007,02,28,07,42,7.00
2007,02,28,07,43,7.00
2007,02,28,07,44,8.00
2007,02,28,07,45,10.20
2007,02,28,07,46,11.00
2007,02,28,07,47,11.00
2007,02,28,07,48,11.00
2007,02,28,07,49,12.00
2007,02,28,07,50,12.00
2007,02,28,07,51,12.60
2007,02,28,07,52,14.00
2007,02,28,07,53,14.00
2007,02,28,07,54,15.30
2007,02,28,07,55,16.00
2007,02,28,07,56,16.00
2007,02,28,07,57,17.90
2007,02,28,07,58,18.10
2007,02,28,07,59,19.00
2007,02,28,08,00,19.00
2007,02,28,08,01,19.00
2007,02,28,08,02,18.50
2007,02,28,08,03,18.00
2007,02,28,08,04,16.40
2007,02,28,08,05,16.00
2007,02,28,08,06,16.00
2007,02,28,08,07,16.00
2007,02,28,08,08,16.00
2007,02,28,08,09,16.00
2007,02,28,08,10,16.00
2007,02,28,08,11,16.00
2007,02,28,08,12,16.00
2007,02,28,08,13,16.00
2007,02,28,08,14,15.90
2007,02,28,08,15,14.00
2007,02,28,08,16,14.00
2007,02,28,08,17,14.00
2007,02,28,08,18,14.00
2007,02,28,08,19,14.00
2007,02,28,08,20,14.00
2007,02,28,08,21,12.50
2007,02,28,08,22,12.00
2007,02,28,08,23,12.00
2007,02,28,08,24,12.00
2007,02,28,08,25,12.00
2007,02,28,08,26,12.80
2007,02,28,08,27,14.00
2007,02,28,08,28,14.00
2007,02,28,08,29,14.00
2007,02,28,08,30,14.00
2007,02,28,08,31,14.00
2007,02,28,08,32,14.00
2007,02,28,08,33,13.60
2007,02,28,08,34,12.00
2007,02,28,08,35,12.00
2007,02,28,08,36,12.00
2007,02,28,08,37,12.00
2007,02,28,08,38,12.00
2007,02,28,08,39,12.00
2007,02,28,08,40,12.00
2007,02,28,08,41,12.00
2007,02,28,08,42,12.00
2007,02,28,08,43,12.70
2007,02,28,08,44,14.00
2007,02,28,08,45,14.00
2007,02,28,08,46,14.00
2007,02,28,08,47,14.00
2007,02,28,08,48,14.00
2007,02,28,08,49,14.00
2007,02,28,08,50,14.00
2007,02,28,08,51,14.00
2007,02,28,08,52,14.00
2007,02,28,08,53,13.00
2007,02,28,08,54,12.00
2007,02,28,08,55,12.00
2007,02,28,08,56,12.00
2007,02,28,08,57,12.00
2007,02,28,08,58,12.00
2007,02,28,08,59,12.00
2007,02,28,09,00,12.60
2007,02,28,09,01,14.00
2007,02,28,09,02,14.00
2007,02,28,09,03,14.00
2007,02,28,09,04,14.00
2007,02,28,09,05,14.00
2007,02,28,09,06,15.90
2007,02,28,09,07,16.00
2007,02,28,09,08,16.00
2007,02,28,09,09,16.00
2007,02,28,09,10,16.00
2007,02,28,09,11,16.00
2007,02,28,09,12,16.00
2007,02,28,09,13,16.00
2007,02,28,09,14,16.00
2007,02,28,09,15,16.30
2007,02,28,09,16,19.80
2007,02,28,09,17,23.60
2007,02,28,09,18,26.20
2007,02,28,09,19,29.00
2007,02,28,09,20,30.00
2007,02,28,09,21,31.40
2007,02,28,09,22,32.00
2007,02,28,09,23,32.00
2007,02,28,09,24,32.00
2007,02,28,09,25,31.50
2007,02,28,09,26,29.30
2007,02,28,09,27,28.00
2007,02,28,09,28,26.90
2007,02,28,09,29,26.00
2007,02,28,09,30,26.00
2007,02,28,09,31,26.00
2007,02,28,09,32,27.90
2007,02,28,09,33,28.40
2007,02,28,09,34,30.60
2007,02,28,09,35,32.00
2007,02,28,09,36,32.50
2007,02,28,09,37,33.00
2007,02,28,09,38,34.40
2007,02,28,09,39,36.60
2007,02,28,09,40,37.00
2007,02,28,09,41,37.20
2007,02,28,09,42,39.00
2007,02,28,09,43,39.00
2007,02,28,09,44,39.40
2007,02,28,09,45,40.00
2007,02,28,09,46,40.00
2007,02,28,09,47,40.00
2007,02,28,09,48,40.00
2007,02,28,09,49,41.90
2007,02,28,09,50,42.00
2007,02,28,09,51,42.00
2007,02,28,09,52,42.80
2007,02,28,09,53,44.00
2007,02,28,09,54,44.00
2007,02,28,09,55,44.00
2007,02,28,09,56,44.00
2007,02,28,09,57,44.00
2007,02,28,09,58,46.00
2007,02,28,09,59,46.00
2007,02,28,10,00,46.90
2007,02,28,10,01,49.00
2007,02,28,10,02,50.00
2007,02,28,10,03,52.20
2007,02,28,10,04,53.70
2007,02,28,10,05,55.70
2007,02,28,10,06,57.90
2007,02,28,10,07,60.20
2007,02,28,10,08,62.20
2007,02,28,10,09,63.00
2007,02,28,10,10,63.00
2007,02,28,10,11,66.80
2007,02,28,10,12,72.60
2007,02,28,10,13,75.50
2007,02,28,10,14,78.60
2007,02,28,10,15,83.10
2007,02,28,10,16,86.80
2007,02,28,10,17,92.10
2007,02,28,10,18,99.00
2007,02,28,10,19,101.10
2007,02,28,10,20,100.00
2007,02,28,10,21,101.40
2007,02,28,10,22,102.00
2007,02,28,10,23,102.00
2007,02,28,10,24,98.00
2007,02,28,10,25,99.00
2007,02,28,10,26,105.20
2007,02,28,10,27,117.30
2007,02,28,10,28,133.40
2007,02,28,10,29,129.00
2007,02,28,10,30,120.20
2007,02,28,10,31,120.00
2007,02,28,10,32,249.90
2007,02,28,10,33,240.80
2007,02,28,10,34,272.40
2007,02,28,10,35,261.40
2007,02,28,10,36,269.00
2007,02,28,10,37,269.00
2007,02,28,10,38,234.60
2007,02,28,10,39,189.80
2007,02,28,10,40,181.00
2007,02,28,10,41,277.00
2007,02,28,10,42,223.00
2007,02,28,10,43,245.20
2007,02,28,10,44,300.90
2007,02,28,10,45,292.70
2007,02,28,10,46,279.80
2007,02,28,10,47,257.90
2007,02,28,10,48,235.20
2007,02,28,10,49,229.20
2007,02,28,10,50,232.50
2007,02,28,10,51,265.80
2007,02,28,10,52,270.40
2007,02,28,10,53,267.30
2007,02,28,10,54,280.80
2007,02,28,10,55,274.00
2007,02,28,10,56,257.90
2007,02,28,10,57,257.00
2007,02,28,10,58,275.30
2007,02,28,10,59,344.60
2007,02,28,11,00,297.00
2007,02,28,11,01,319.00
2007,02,28,11,02,330.20
2007,02,28,11,03,306.00
2007,02,28,11,04,391.80
2007,02,28,11,05,438.00
2007,02,28,11,06,438.00
2007,02,28,11,07,253.90
2007,02,28,11,08,244.00
2007,02,28,11,09,239.80
2007,02,28,11,10,230.00
2007,02,28,11,11,255.30
2007,02,28,11,12,278.00
2007,02,28,11,13,278.00
2007,02,28,11,14,233.50
2007,02,28,11,15,212.90
2007,02,28,11,16,205.10
2007,02,28,11,17,225.00
2007,02,28,11,18,211.80
2007,02,28,11,19,178.00
2007,02,28,11,20,434.90
2007,02,28,11,21,645.00
2007,02,28,11,22,663.80
2007,02,28,11,23,670.00
2007,02,28,11,24,642.60
2007,02,28,11,25,396.00
2007,02,28,11,26,396.00
2007,02,28,11,27,490.00
2007,02,28,11,28,631.00
2007,02,28,11,29,626.80
2007,02,28,11,30,616.10
2007,02,28,11,31,624.00
2007,02,28,11,32,622.70
2007,02,28,11,33,566.40
2007,02,28,11,34,628.00
2007,02,28,11,35,626.10
2007,02,28,11,36,623.80
2007,02,28,11,37,630.80
2007,02,28,11,38,628.10
2007,02,28,11,39,637.00
2007,02,28,11,40,637.00
2007,02,28,11,41,613.00
2007,02,28,11,42,613.00
2007,02,28,11,43,613.00
2007,02,28,11,44,578.30
2007,02,28,11,45,522.00
2007,02,28,11,46,523.20
2007,02,28,11,47,545.50
2007,02,28,11,48,563.90
2007,02,28,11,49,605.60
2007,02,28,11,50,606.00
2007,02,28,11,51,606.00
2007,02,28,11,52,605.70
2007,02,28,11,53,604.20
2007,02,28,11,54,602.00
2007,02,28,11,55,601.00
2007,02,28,11,56,601.00
2007,02,28,11,57,601.00
2007,02,28,11,58,599.20
2007,02,28,11,59,599.30
2007,02,28,12,00,600.20
2007,02,28,12,01,598.30
2007,02,28,12,02,599.00
2007,02,28,12,03,599.00
2007,02,28,12,04,600.30
2007,02,28,12,05,601.00
2007,02,28,12,06,601.00
2007,02,28,12,07,601.00
2007,02,28,12,08,601.40
2007,02,28,12,09,602.40
2007,02,28,12,10,601.00
2007,02,28,12,11,601.00
2007,02,28,12,12,601.00
2007,02,28,12,13,602.40
2007,02,28,12,14,603.00
2007,02,28,12,15,601.20
2007,02,28,12,16,569.60
2007,02,28,12,17,588.20
2007,02,28,12,18,600.30
2007,02,28,12,19,599.00
2007,02,28,12,20,599.00
2007,02,28,12,21,599.00
2007,02,28,12,22,599.00
2007,02,28,12,23,600.70
2007,02,28,12,24,602.90
2007,02,28,12,25,603.00
2007,02,28,12,26,603.80
2007,02,28,12,27,605.60
2007,02,28,12,28,605.00
2007,02,28,12,29,605.50
2007,02,28,12,30,605.30
2007,02,28,12,31,605.80
2007,02,28,12,32,607.80
2007,02,28,12,33,601.70
2007,02,28,12,34,607.60
2007,02,28,12,35,606.60
2007,02,28,12,36,607.20
2007,02,28,12,37,607.00
2007,02,28,12,38,606.80
2007,02,28,12,39,607.40
2007,02,28,12,40,608.00
2007,02,28,12,41,599.90
2007,02,28,12,42,606.60
2007,02,28,12,43,610.50
2007,02,28,12,44,612.30
2007,02,28,12,45,613.90
2007,02,28,12,46,618.30
2007,02,28,12,47,601.50
2007,02,28,12,48,598.90
2007,02,28,12,49,602.70
2007,02,28,12,50,580.90
2007,02,28,12,51,576.10
2007,02,28,12,52,605.00
2007,02,28,12,53,614.60
2007,02,28,12,54,629.00
2007,02,28,12,55,629.00
2007,02,28,12,56,629.00
2007,02,28,12,57,638.30
2007,02,28,12,58,577.90
2007,02,28,12,59,571.00
2007,02,28,13,00,524.00
2007,02,28,13,01,383.00
2007,02,28,13,02,383.00
2007,02,28,13,03,383.00
2007,02,28,13,04,507.80
2007,02,28,13,05,554.80
2007,02,28,13,06,548.00
2007,02,28,13,07,548.00
2007,02,28,13,08,497.10
2007,02,28,13,09,209.00
2007,02,28,13,10,209.00
2007,02,28,13,11,209.00
2007,02,28,13,12,328.40
2007,02,28,13,13,434.60
2007,02,28,13,14,425.20
2007,02,28,13,15,420.00
2007,02,28,13,16,421.20
2007,02,28,13,17,427.20
2007,02,28,13,18,423.30
2007,02,28,13,19,477.80
2007,02,28,13,20,504.90
2007,02,28,13,21,510.60
2007,02,28,13,22,515.00
2007,02,28,13,23,456.10
2007,02,28,13,24,392.90
2007,02,28,13,25,429.00
2007,02,28,13,26,460.30
2007,02,28,13,27,415.00
2007,02,28,13,28,371.50
2007,02,28,13,29,340.20
2007,02,28,13,30,330.10
2007,02,28,13,31,349.80
2007,02,28,13,32,329.90
2007,02,28,13,33,327.00
2007,02,28,13,34,306.90
2007,02,28,13,35,193.00
2007,02,28,13,36,193.00
2007,02,28,13,37,189.00
2007,02,28,13,38,183.80
2007,02,28,13,39,183.00
2007,02,28,13,40,185.40
2007,02,28,13,41,191.40
2007,02,28,13,42,199.00
2007,02,28,13,43,200.80
2007,02,28,13,44,206.90
2007,02,28,13,45,209.00
2007,02,28,13,46,227.70
2007,02,28,13,47,254.10
2007,02,28,13,48,260.00
2007,02,28,13,49,260.00
2007,02,28,13,50,217.70
2007,02,28,13,51,206.00
2007,02,28,13,52,205.00
2007,02,28,13,53,202.00
2007,02,28,13,54,201.10
2007,02,28,13,55,200.00
2007,02,28,13,56,199.30
2007,02,28,13,57,199.00
2007,02,28,13,58,199.00
2007,02,28,13,59,199.00
2007,02,28,14,00,199.00
2007,02,28,14,01,199.00
2007,02,28,14,02,199.00
2007,02,28,14,03,199.00
2007,02,28,14,04,197.80
2007,02,28,14,05,194.20
2007,02,28,14,06,190.50
2007,02,28,14,07,185.50
2007,02,28,14,08,183.60
2007,02,28,14,09,175.00
2007,02,28,14,10,170.90
2007,02,28,14,11,167.20
2007,02,28,14,12,163.90
2007,02,28,14,13,161.10
2007,02,28,14,14,158.50
2007,02,28,14,15,155.40
2007,02,28,14,16,153.00
2007,02,28,14,17,152.60
2007,02,28,14,18,151.00
2007,02,28,14,19,150.20
2007,02,28,14,20,148.50
2007,02,28,14,21,148.00
2007,02,28,14,22,148.00
2007,02,28,14,23,153.60
2007,02,28,14,24,164.00
2007,02,28,14,25,186.50
2007,02,28,14,26,200.90
2007,02,28,14,27,229.30
2007,02,28,14,28,244.00
2007,02,28,14,29,244.00
2007,02,28,14,30,244.00
2007,02,28,14,31,244.00
2007,02,28,14,32,267.10
2007,02,28,14,33,272.00
2007,02,28,14,34,272.00
2007,02,28,14,35,272.00
2007,02,28,14,36,275.90
2007,02,28,14,37,280.80
2007,02,28,14,38,272.00
2007,02,28,14,39,288.00
2007,02,28,14,40,289.10
2007,02,28,14,41,280.20
2007,02,28,14,42,291.80
2007,02,28,14,43,270.40
2007,02,28,14,44,269.10
2007,02,28,14,45,276.20
2007,02,28,14,46,269.00
2007,02,28,14,47,289.80
2007,02,28,14,48,299.90
2007,02,28,14,49,289.60
2007,02,28,14,50,288.90
2007,02,28,14,51,301.80
2007,02,28,14,52,278.00
2007,02,28,14,53,278.00
2007,02,28,14,54,281.80
2007,02,28,14,55,295.20
2007,02,28,14,56,283.10
2007,02,28,14,57,273.50
2007,02,28,14,58,274.00
2007,02,28,14,59,285.90
2007,02,28,15,00,276.00
2007,02,28,15,01,276.00
2007,02,28,15,02,266.00
2007,02,28,15,03,251.00
2007,02,28,15,04,251.00
2007,02,28,15,05,247.50
2007,02,28,15,06,242.10
2007,02,28,15,07,242.80
2007,02,28,15,08,230.40
2007,02,28,15,09,216.00
2007,02,28,15,10,211.80
2007,02,28,15,11,200.90
2007,02,28,15,12,193.10
2007,02,28,15,13,186.80
2007,02,28,15,14,180.50
2007,02,28,15,15,174.80
2007,02,28,15,16,167.40
2007,02,28,15,17,164.90
2007,02,28,15,18,151.20
2007,02,28,15,19,143.60
2007,02,28,15,20,139.00
2007,02,28,15,21,132.40
2007,02,28,15,22,122.40
2007,02,28,15,23,115.20
2007,02,28,15,24,109.50
2007,02,28,15,25,103.70
2007,02,28,15,26,97.00
2007,02,28,15,27,91.50
2007,02,28,15,28,86.00
2007,02,28,15,29,80.00
2007,02,28,15,30,75.10
2007,02,28,15,31,71.20
2007,02,28,15,32,70.00
2007,02,28,15,33,63.30
2007,02,28,15,34,61.80
2007,02,28,15,35,60.00
2007,02,28,15,36,58.70
2007,02,28,15,37,55.10
2007,02,28,15,38,53.50
2007,02,28,15,39,53.00
2007,02,28,15,40,51.50
2007,02,28,15,41,51.00
2007,02,28,15,42,50.90
2007,02,28,15,43,49.00
2007,02,28,15,44,48.50
2007,02,28,15,45,47.00
2007,02,28,15,46,47.00
2007,02,28,15,47,46.50
2007,02,28,15,48,44.60
2007,02,28,15,49,44.00
2007,02,28,15,50,42.20
2007,02,28,15,51,41.80
2007,02,28,15,52,40.00
2007,02,28,15,53,39.70
2007,02,28,15,54,39.00
2007,02,28,15,55,39.00
2007,02,28,15,56,39.00
2007,02,28,15,57,37.50
2007,02,28,15,58,38.70
2007,02,28,15,59,39.00
2007,02,28,16,00,39.50
2007,02,28,16,01,43.00
2007,02,28,16,02,46.00
2007,02,28,16,03,52.00
2007,02,28,16,04,63.00
2007,02,28,16,05,67.00
2007,02,28,16,06,67.00
2007,02,28,16,07,101.00
2007,02,28,16,08,121.00
2007,02,28,16,09,126.40
2007,02,28,16,10,160.70
2007,02,28,16,11,181.60
2007,02,28,16,12,203.00
2007,02,28,16,13,221.40
2007,02,28,16,14,231.90
2007,02,28,16,15,236.40
2007,02,28,16,16,237.00
2007,02,28,16,17,233.30
2007,02,28,16,18,226.80
2007,02,28,16,19,216.70
2007,02,28,16,20,203.60
2007,02,28,16,21,197.00
2007,02,28,16,22,185.30
2007,02,28,16,23,168.50
2007,02,28,16,24,153.10
2007,02,28,16,25,148.90
2007,02,28,16,26,128.20
2007,02,28,16,27,118.60
2007,02,28,16,28,109.70
2007,02,28,16,29,100.50
2007,02,28,16,30,92.80
2007,02,28,16,31,85.90
2007,02,28,16,32,81.70
2007,02,28,16,33,76.50
2007,02,28,16,34,69.70
2007,02,28,16,35,67.00
2007,02,28,16,36,64.60
2007,02,28,16,37,57.50
2007,02,28,16,38,52.40
2007,02,28,16,39,48.40
2007,02,28,16,40,44.80
2007,02,28,16,41,40.60
2007,02,28,16,42,37.30
2007,02,28,16,43,34.70
2007,02,28,16,44,32.70
2007,02,28,16,45,32.00
2007,02,28,16,46,30.20
2007,02,28,16,47,28.00
2007,02,28,16,48,28.00
2007,02,28,16,49,28.00
2007,02,28,16,50,28.00
2007,02,28,16,51,28.00
2007,02,28,16,52,28.00
2007,02,28,16,53,28.00
2007,02,28,16,54,28.00
2007,02,28,16,55,28.00
2007,02,28,16,56,29.20
2007,02,28,16,57,31.40
2007,02,28,16,58,32.00
2007,02,28,16,59,32.90
2007,02,28,17,00,37.00
2007,02,28,17,01,38.20
2007,02,28,17,02,44.20
2007,02,28,17,03,50.80
2007,02,28,17,04,54.70
2007,02,28,17,05,57.30
2007,02,28,17,06,60.80
2007,02,28,17,07,62.00
2007,02,28,17,08,62.00
2007,02,28,17,09,61.60
2007,02,28,17,10,60.00
2007,02,28,17,11,55.60
2007,02,28,17,12,47.60
2007,02,28,17,13,43.80
2007,02,28,17,14,42.00
2007,02,28,17,15,39.60
2007,02,28,17,16,37.20
2007,02,28,17,17,34.80
2007,02,28,17,18,32.80
2007,02,28,17,19,30.70
2007,02,28,17,20,28.00
2007,02,28,17,21,28.00
2007,02,28,17,22,24.80
2007,02,28,17,23,23.00
2007,02,28,17,24,19.80
2007,02,28,17,25,19.00